You are not logged in, Click here to log in
ICAO: RJCH Country: 日本北海道函館市
Latitude: 41.7756 Longitude: 140.815
Total Arrivals: 16 Total Departures: 14
Latest Arrival: EH499 (RJGG-RJCH)鈺友. 陳 Latest Departure: 4MEH85 (RJCH-RJAA)鈺友. 陳
Scenery:
METAR : RJCH 180700Z 13010KT 9999 FEW025 SCT040 26/22 Q1008

函館空港HKD